Theta_e
313 312 312 312 312 311 311 310 309 309 309 308 308 308 307 307 306 306 305 305 306 307 308 308 308 308 307 308 309 311 313 313 314 315 317 318 318 317 317 316 312 312 314 314 314 314 312 313 313 311 314 315 311 313 311 313 322 332 339 330 322 324 323 321 318 316 321 321 317 314 314 316 316 313 310 308 312 316 313 314 313 308 308 307 308 306 308 323
312 311 311 311 311 311 311 310 310 309 308 308 308 308 307 307 306 306 306 306 306 306 308 308 308 308 308 309 310 313 313 316 317 315 316 316 315 316 316 315 312 313 315 314 314 314 314 315 311 311 318 317 311 314 315 312 320 335 332 325 330 331 321 319 319 315 316 317 317 315 313 314 315 314 311 312 317 316 314 316 314 314 313 309 308 309 314 324
312 311 310 311 310 311 311 311 311 309 307 307 307 307 306 306 306 306 306 306 307 307 307 308 308 308 309 311 312 314 314 316 318 315 314 314 314 314 313 313 314 314 315 315 316 314 316 315 309 313 322 319 313 316 322 316 316 324 324 324 333 331 319 315 318 318 315 314 318 316 312 314 313 312 312 314 318 316 317 318 315 316 318 314 312 314 321 325
311 310 310 310 310 310 311 310 310 309 307 307 307 307 306 306 306 306 307 307 308 308 308 308 308 309 311 312 313 314 315 314 316 315 313 312 313 312 311 314 315 315 316 315 316 315 314 312 310 316 321 319 320 321 321 316 315 318 321 325 324 321 318 316 317 319 316 313 317 318 313 314 312 311 313 315 317 317 319 318 316 317 320 318 313 315 324 325
311 310 310 310 310 310 310 310 310 309 308 307 306 306 306 306 306 306 307 307 308 309 308 309 310 312 313 314 315 314 317 315 312 313 312 312 311 311 313 315 316 316 316 316 316 315 313 310 313 321 321 320 326 323 316 312 314 316 316 318 318 317 317 316 316 317 315 312 316 318 314 313 311 312 315 316 316 318 319 317 317 316 317 317 312 316 323 323
310 310 310 310 310 309 309 310 309 308 308 307 307 307 306 306 307 307 308 308 309 310 310 311 312 313 314 315 315 314 316 315 312 313 312 311 311 312 314 315 316 316 316 317 315 313 315 315 317 324 323 320 321 319 315 311 312 318 316 314 316 317 315 316 316 314 313 314 318 317 314 313 313 315 315 315 314 317 318 313 314 311 308 309 309 314 321 323
310 309 310 310 309 308 309 310 309 308 308 308 308 307 307 307 307 308 308 309 310 311 311 312 313 313 314 315 315 316 318 316 313 314 312 311 312 313 314 315 316 317 317 316 314 316 320 321 320 323 323 319 316 315 315 312 315 322 319 315 315 314 314 314 313 313 313 316 317 314 312 314 318 315 311 314 315 316 313 304 304 304 302 305 308 313 319 323
310 309 309 309 308 308 308 310 310 308 308 308 309 308 308 307 307 308 309 310 310 312 312 313 314 314 315 315 315 318 318 317 314 313 312 311 312 313 314 316 316 316 317 315 314 317 319 320 317 318 320 317 314 315 314 314 318 322 318 316 316 314 315 314 313 315 314 314 313 313 314 315 316 312 311 316 317 316 311 304 304 303 304 308 311 314 314 319
310 309 309 309 309 308 307 309 310 309 308 309 309 308 309 308 308 309 309 310 311 312 313 313 314 314 315 313 314 317 315 317 316 313 311 311 313 314 315 316 316 316 316 314 313 314 316 318 317 315 317 314 314 316 315 316 317 317 318 319 317 315 316 314 315 318 317 315 312 314 317 314 311 310 314 318 317 316 312 311 313 311 314 316 313 311 308 313
311 310 310 310 309 309 308 309 310 309 309 310 310 309 309 309 310 309 310 311 311 313 313 314 314 314 315 312 313 313 314 318 317 312 311 311 313 314 315 316 317 317 315 314 312 312 314 316 313 311 315 315 315 315 314 316 315 316 320 319 317 319 317 314 315 317 316 316 314 315 318 315 311 312 317 317 314 313 314 316 316 315 320 318 313 309 305 308
312 311 311 310 309 309 309 309 309 310 310 310 310 310 308 309 310 310 311 311 312 313 313 314 314 315 314 314 317 314 315 319 317 313 311 312 313 314 315 316 316 316 315 313 312 312 313 312 308 309 314 314 315 316 313 313 313 315 320 318 318 322 318 316 317 316 315 315 314 315 316 315 312 313 317 316 310 309 315 319 318 318 321 317 313 309 305 305
313 311 311 311 309 309 309 309 309 310 310 310 311 309 307 309 309 310 311 312 313 313 314 314 315 316 313 315 320 317 317 320 316 313 312 312 314 314 315 316 316 316 316 313 311 312 312 310 310 314 315 313 315 317 313 313 313 315 318 317 321 327 320 316 318 316 314 315 314 314 315 318 316 315 317 315 310 310 316 321 321 321 320 316 313 310 306 304
313 313 312 312 311 310 310 310 310 311 311 310 309 307 307 308 309 310 311 312 313 313 314 314 315 316 313 315 317 316 317 319 316 314 313 313 314 314 314 315 316 316 315 313 312 312 311 311 313 315 314 316 317 312 314 316 315 316 317 319 324 327 321 314 314 314 313 314 314 314 317 325 325 320 316 312 311 313 317 321 320 321 320 317 314 311 309 304
314 314 313 312 312 312 312 312 311 312 311 310 308 307 308 308 309 311 311 312 313 314 314 315 315 313 313 314 314 315 317 317 317 314 313 314 314 314 314 315 316 314 314 313 312 311 312 311 313 313 311 316 314 309 320 325 321 319 315 323 327 319 321 319 315 315 313 313 313 313 317 324 327 325 316 310 310 313 316 320 319 320 319 316 314 312 311 306
315 315 314 313 313 313 313 313 312 311 310 309 309 309 309 310 310 311 312 313 313 314 315 315 315 314 318 316 313 315 316 317 318 315 314 315 314 314 313 314 315 314 313 313 312 311 312 312 316 318 313 312 313 316 329 328 327 325 314 325 327 317 328 327 314 316 316 312 311 313 319 321 321 322 315 308 309 312 316 319 317 318 318 316 315 312 311 307
316 315 314 314 314 313 313 313 312 311 310 308 309 310 311 311 311 312 314 314 315 314 314 315 313 314 318 315 312 314 314 317 317 314 315 314 315 315 313 313 313 313 313 312 314 313 312 316 316 315 313 315 322 332 336 326 329 330 318 323 326 319 327 323 313 314 315 313 312 313 319 322 321 319 314 308 309 312 317 319 317 317 315 313 312 310 309 308
317 316 315 315 314 314 313 313 313 311 310 308 309 312 312 313 312 313 315 315 315 313 313 314 311 310 312 311 312 314 313 316 316 314 315 314 315 315 313 313 311 311 313 312 314 314 313 318 314 312 318 322 325 333 332 322 324 329 321 320 325 322 321 320 318 315 311 312 314 313 315 318 319 319 316 312 312 314 317 320 319 316 312 311 310 308 308 308
318 317 316 315 315 314 313 313 312 311 310 308 310 313 313 314 313 313 315 314 312 311 311 311 309 310 311 308 311 314 314 315 315 314 314 314 314 314 314 313 310 312 318 317 315 315 316 320 319 320 324 323 322 326 326 325 327 329 326 324 324 320 318 322 325 316 311 313 316 316 316 315 316 316 314 314 313 315 315 315 315 313 312 311 309 308 307 306
319 318 317 316 315 314 313 312 312 312 310 308 312 314 312 312 313 315 315 312 311 309 311 312 309 312 312 310 312 314 314 314 314 314 313 313 312 314 314 312 314 318 320 322 317 317 320 323 323 322 323 322 321 321 323 328 328 328 334 336 329 322 320 324 326 319 313 314 317 317 316 316 315 314 315 314 314 315 315 314 312 311 311 310 309 308 307 307
320 319 318 317 316 314 313 312 312 312 310 311 314 311 309 312 312 312 314 315 315 311 314 317 311 311 313 313 314 314 314 314 314 315 313 312 313 315 314 313 323 326 323 326 321 315 319 324 325 324 323 322 321 320 321 323 323 326 332 333 327 323 323 324 324 319 312 314 322 320 316 317 314 314 314 312 312 313 313 314 312 311 310 310 310 309 308 308
321 320 320 318 317 316 314 313 312 313 311 312 313 308 309 313 308 307 312 316 313 308 315 317 310 311 312 311 314 313 315 316 314 314 313 312 313 316 317 317 324 325 323 325 321 316 320 324 324 323 320 321 321 320 321 322 324 328 327 323 324 324 325 323 318 317 314 315 322 320 317 317 315 313 312 311 312 313 313 313 313 312 311 310 310 310 310 308
322 321 321 319 318 317 315 314 313 313 311 311 312 308 309 311 309 308 311 314 313 307 313 314 310 314 312 310 314 313 315 319 317 315 314 312 313 316 320 323 324 323 319 319 320 320 323 325 322 319 318 319 319 318 321 323 325 331 326 320 324 325 322 319 315 315 315 314 321 323 318 316 314 313 313 312 312 312 312 313 313 313 312 312 311 311 310 309
322 322 321 320 319 317 316 315 314 312 311 311 311 310 310 312 312 310 310 313 314 311 313 316 315 317 315 311 313 315 317 320 320 318 314 312 315 317 319 323 325 323 319 319 323 324 324 324 321 317 318 320 319 318 321 322 323 328 326 323 326 324 320 318 317 316 314 313 319 322 316 314 314 314 314 313 313 313 312 312 311 311 312 312 312 312 311 310
322 321 321 321 319 318 316 315 315 313 311 311 311 311 314 315 313 312 312 313 313 314 314 313 313 316 317 311 311 317 319 317 319 318 314 314 317 316 317 323 324 322 319 320 322 321 323 321 313 312 317 322 321 318 319 320 321 323 323 324 326 325 322 319 319 318 318 316 314 316 319 322 324 322 320 318 317 317 314 313 314 311 310 310 311 311 310 310
321 321 321 321 320 318 316 315 315 313 312 312 311 312 314 315 312 310 312 313 313 315 311 307 311 315 314 311 313 318 318 316 319 317 312 313 317 315 315 319 321 321 320 319 319 320 321 316 313 315 315 320 324 320 321 322 322 323 323 323 322 323 322 319 321 321 324 325 316 314 322 333 337 331 325 324 323 322 318 318 319 315 312 311 311 310 309 309
320 321 321 320 320 317 315 316 315 313 314 312 310 312 314 315 313 309 313 315 313 315 312 308 311 312 310 312 315 316 314 314 314 313 311 312 314 314 315 316 316 320 320 319 318 320 319 313 316 323 318 318 321 320 321 320 321 324 322 320 317 317 319 319 320 320 326 328 316 312 319 328 331 324 320 322 322 320 317 317 317 315 314 314 313 313 311 310
318 320 320 320 319 317 317 317 314 313 315 314 310 311 312 315 313 309 313 316 313 313 314 311 309 309 311 312 312 311 311 313 312 311 312 312 312 312 317 317 314 317 318 317 319 318 318 315 317 322 322 320 318 321 322 316 322 327 319 318 318 317 321 322 320 320 325 324 316 316 322 323 323 321 321 322 322 321 320 321 319 315 314 315 314 313 313 312
316 318 320 320 319 319 318 318 315 313 314 313 310 310 312 314 312 310 312 313 312 311 313 312 309 309 313 311 311 313 312 313 314 314 311 311 312 312 318 320 317 319 317 317 319 316 316 320 319 319 322 322 321 326 322 315 322 324 314 316 319 320 323 324 323 323 322 322 319 320 321 321 326 328 325 321 321 324 326 325 323 318 316 316 315 315 315 314
315 317 319 319 318 318 318 318 316 315 314 311 310 310 311 312 311 311 311 310 312 311 311 312 309 311 315 311 312 316 314 314 316 314 310 311 312 312 316 318 318 318 314 315 318 314 313 316 317 318 320 322 322 319 315 315 320 315 309 315 317 319 322 323 326 326 325 326 322 321 321 319 322 326 325 321 322 326 324 321 319 316 318 317 315 316 316 317
313 315 317 318 317 316 316 317 316 316 315 312 310 310 311 313 310 309 310 310 311 312 311 311 310 313 316 313 314 315 314 316 316 315 314 314 315 314 313 313 317 322 317 316 319 316 312 310 312 318 318 319 319 313 310 316 317 312 316 322 321 323 323 324 326 324 327 328 320 321 322 317 319 325 326 321 324 329 325 323 321 319 323 321 318 320 321 320
312 314 317 317 317 316 316 316 315 316 315 312 310 310 312 315 312 311 312 310 310 312 312 312 312 314 316 314 316 315 315 317 316 316 317 316 316 318 315 312 319 326 324 319 319 316 313 313 316 317 315 316 318 315 311 312 311 316 329 329 322 325 323 323 326 324 327 326 319 321 320 316 320 326 326 322 321 323 321 324 325 324 328 327 323 324 326 323
310 313 315 317 317 316 316 316 316 315 314 311 311 314 316 314 313 314 313 310 313 316 316 316 314 314 315 314 315 315 316 318 315 316 319 317 317 317 316 316 318 321 321 318 319 317 316 319 318 314 312 316 323 322 316 313 313 320 329 326 321 325 322 322 327 326 327 322 315 317 319 317 319 321 322 321 321 321 317 317 321 321 326 325 321 324 326 323
308 310 313 315 317 316 316 316 316 314 313 310 313 317 318 316 317 316 313 313 316 316 315 318 317 316 315 314 316 314 315 317 315 316 318 317 318 317 317 320 317 318 320 317 317 318 319 319 316 314 315 317 320 321 320 319 318 320 325 324 323 324 322 323 325 321 321 319 312 311 317 321 320 320 320 318 317 318 316 314 315 316 318 318 316 319 322 319
307 308 310 312 314 316 316 316 315 314 312 312 314 316 316 318 320 318 315 314 316 316 317 317 315 315 315 315 317 315 314 316 316 317 318 317 319 319 320 319 315 320 326 320 316 319 320 319 317 316 318 317 316 317 321 323 318 319 322 322 324 325 324 324 326 323 321 322 316 310 316 326 325 323 321 317 317 318 317 315 315 313 313 312 312 314 317 316
306 307 308 309 311 314 315 315 315 314 313 313 314 314 314 317 319 319 318 314 315 318 318 316 316 316 315 316 318 315 313 315 314 316 318 318 320 319 319 318 315 319 324 318 317 318 316 320 321 317 315 316 316 317 321 321 317 318 320 320 321 323 321 319 319 321 322 323 322 317 319 325 323 319 318 318 322 324 320 316 316 317 313 312 313 314 313 313
306 306 307 308 309 312 314 315 314 313 314 313 313 314 314 315 315 317 318 314 315 319 317 317 319 319 316 317 318 315 313 316 316 317 318 317 319 319 317 317 315 315 316 313 319 320 317 319 318 314 314 315 316 318 319 318 316 317 319 320 319 318 323 323 314 312 315 318 322 322 322 322 320 318 318 320 324 324 322 320 322 321 315 313 315 314 314 315
305 305 306 307 308 310 312 314 313 312 314 313 313 314 313 314 315 315 315 314 316 318 317 317 318 319 318 317 318 316 315 317 316 317 319 317 319 320 317 317 316 314 313 312 318 321 320 321 316 313 316 313 311 316 319 316 316 319 321 321 316 314 323 327 320 318 320 322 324 323 321 319 319 320 319 318 318 319 320 320 321 319 317 318 317 314 316 318
304 305 306 306 307 308 311 313 313 312 313 313 314 315 313 313 316 315 315 315 315 316 317 318 316 317 319 317 318 317 315 317 316 317 319 316 318 319 317 318 318 314 313 311 315 318 318 320 318 312 316 314 310 315 320 315 312 318 321 319 319 322 324 323 322 323 323 323 328 328 322 316 317 321 320 318 320 323 320 317 317 319 318 318 317 317 319 319
304 306 308 308 306 307 310 313 312 311 312 312 314 316 314 313 314 316 317 315 314 315 316 316 315 316 319 317 318 318 315 316 316 316 317 316 316 318 315 316 317 315 314 312 314 319 316 316 319 312 311 315 314 316 321 318 313 314 315 314 317 323 324 323 321 321 321 322 325 329 325 318 319 324 323 318 321 327 327 323 323 323 320 318 320 321 320 319
305 308 310 309 308 308 311 312 310 309 311 313 313 316 316 314 314 315 317 314 314 315 315 316 317 317 319 317 317 318 316 316 316 316 317 315 316 317 315 315 318 317 315 312 314 318 316 314 318 315 311 315 319 318 318 319 316 315 317 317 317 319 321 322 320 319 322 327 328 328 323 317 321 323 322 320 321 324 331 331 327 325 322 320 323 323 321 320
306 307 307 309 310 311 312 312 310 309 312 313 313 314 314 315 315 314 314 313 315 317 315 316 318 317 318 318 318 318 317 318 317 316 317 315 315 318 316 315 319 318 315 314 314 316 316 315 320 320 316 317 321 318 315 316 317 316 317 318 318 318 318 319 319 318 320 323 325 326 322 317 322 323 321 323 323 322 324 325 322 324 326 327 325 321 320 320
305 305 305 308 311 312 312 313 311 311 312 313 312 313 314 315 315 313 312 312 314 316 316 316 317 316 316 318 318 318 318 319 317 316 318 317 314 317 317 314 316 316 315 316 315 315 319 321 322 322 321 320 317 312 310 314 317 316 317 317 316 317 318 320 321 321 320 319 318 320 322 320 320 322 322 323 322 322 321 321 323 322 321 328 328 321 319 318
304 304 305 306 310 313 313 313 313 311 313 313 312 313 314 315 315 313 313 313 314 315 316 316 316 315 315 317 317 318 318 318 317 317 319 319 315 315 318 316 314 314 315 317 318 317 318 320 319 319 324 324 319 313 310 311 314 316 317 317 317 318 320 322 322 319 321 322 320 321 323 320 316 319 321 320 319 323 323 321 328 325 317 324 330 327 325 322
303 305 305 305 308 311 313 314 314 313 313 313 312 313 313 314 315 313 313 314 314 315 315 315 317 316 315 316 316 317 317 317 317 317 316 319 319 316 317 318 315 314 315 317 318 316 317 320 319 317 322 325 321 318 315 313 314 318 320 319 318 318 319 319 319 317 319 324 323 322 322 319 318 319 320 320 320 324 324 321 325 329 325 327 330 326 323 323
303 304 305 305 305 307 308 310 312 313 313 313 313 314 313 314 315 314 313 313 313 314 315 315 317 318 317 317 316 316 317 317 318 318 316 319 320 317 316 318 316 314 315 317 316 315 317 320 318 317 319 320 319 319 320 318 316 318 322 321 317 317 318 318 319 319 319 322 321 320 319 316 319 321 322 322 322 324 326 324 321 323 325 328 330 327 322 320
302 303 304 305 305 305 306 306 306 308 311 313 313 313 313 314 314 313 313 313 313 313 315 317 318 317 318 317 316 316 318 317 317 319 319 319 320 318 316 316 316 315 316 318 317 318 323 322 317 317 319 318 317 318 321 322 320 318 320 320 316 316 318 318 319 320 319 319 319 318 318 317 318 322 325 327 327 326 328 329 323 321 325 328 330 329 320 314
302 302 303 305 306 307 305 305 306 307 309 311 312 313 313 313 314 314 313 314 313 313 314 316 316 316 317 317 316 317 318 318 318 318 319 318 318 318 314 312 314 314 315 317 316 319 324 321 317 318 318 316 317 319 321 321 321 320 319 318 317 316 317 318 319 319 318 319 319 318 317 318 316 318 325 330 331 328 329 332 331 328 327 325 325 327 322 315
301 301 303 304 306 307 305 304 305 306 307 309 311 312 313 313 313 314 314 314 314 313 314 316 316 316 317 317 317 317 318 318 318 318 318 317 318 318 315 312 313 313 316 317 316 319 323 320 319 320 319 317 316 319 322 321 319 319 318 318 317 316 316 317 318 318 318 319 319 317 318 319 316 315 319 324 329 329 327 328 325 321 320 321 322 325 325 322
300 301 302 302 303 306 305 304 305 306 307 307 308 310 311 312 313 314 314 314 315 314 314 315 315 315 316 316 317 318 317 318 319 318 317 317 318 320 318 316 315 313 315 316 315 318 320 319 320 320 319 319 317 318 322 322 318 318 317 317 316 316 316 317 317 317 317 318 318 317 318 318 315 316 317 319 324 325 323 321 317 317 322 325 326 326 324 324
300 300 301 301 302 303 303 303 304 306 306 307 308 308 308 310 311 312 313 314 315 314 314 314 315 315 315 316 316 317 317 317 318 318 318 317 318 319 319 321 321 315 314 316 316 316 317 319 321 319 318 320 319 318 321 320 318 318 318 318 316 315 316 316 316 317 317 317 318 317 319 317 315 317 320 320 321 320 319 319 318 320 324 325 324 322 322 323
300 300 301 302 302 301 302 302 303 304 305 306 308 308 307 308 309 309 310 311 312 314 314 314 315 315 314 315 316 316 316 317 317 318 318 317 318 318 318 320 322 318 314 315 316 316 316 319 321 320 320 321 320 319 319 317 316 317 319 319 317 316 315 315 316 317 317 318 318 317 318 318 316 319 321 321 322 320 319 320 319 319 321 321 321 319 318 319
299 299 300 302 301 301 302 304 304 303 303 305 306 307 307 308 309 309 309 310 310 311 312 312 313 314 315 316 316 315 315 315 315 317 318 317 317 318 319 319 319 318 315 314 316 317 318 318 320 320 320 320 320 320 319 318 318 320 319 318 317 315 315 315 316 316 315 316 318 318 318 316 317 321 320 320 322 321 318 318 318 318 318 318 318 317 317 317
Wind_Speed
3 1 1 1 1 1 1 1 1 1 1 2 2 2 2 3 3 2 2 2 2 2 1 2 2 3 4 5 5 5 5 5 3 2 2 1 1 0 1 3 3 3 3 2 3 2 2 4 6 5 5 4 4 2 3 3 3 4 3 4 2 3 4 6 8 7 4 2 4 4 3 6 3 2 1 1 2 2 1 3 2 3 4 5 4 4 6 18
3 2 1 1 1 0 0 0 0 1 1 2 2 2 2 2 2 2 2 2 2 2 1 1 2 3 4 5 5 6 6 5 3 2 2 1 1 0 0 2 2 3 3 2 3 4 3 2 4 5 5 3 2 2 2 3 4 4 3 3 3 5 5 5 7 6 2 1 4 3 1 4 4 4 2 2 2 3 1 4 3 4 6 4 2 2 11 18
3 2 1 2 1 0 0 0 0 1 2 2 2 2 2 2 2 1 2 2 2 2 2 1 1 2 3 4 5 6 5 4 3 1 2 2 1 2 4 4 3 3 3 3 4 5 5 2 2 5 5 4 2 2 3 4 2 2 3 2 4 6 4 4 6 6 4 2 5 4 1 1 2 3 2 3 1 1 4 5 2 5 8 5 3 8 14 15
4 3 1 1 1 1 1 1 1 2 2 3 3 2 2 2 2 1 2 2 2 2 2 1 0 2 2 3 4 5 5 5 2 0 2 2 3 5 6 5 4 4 4 4 5 5 5 5 5 5 4 3 3 3 3 3 0 2 3 3 4 3 1 3 6 5 4 3 5 5 3 1 2 2 2 5 3 3 6 7 8 9 9 6 5 10 15 15
4 3 2 1 1 2 1 1 1 1 2 2 2 2 2 2 2 2 2 2 2 2 1 1 1 2 2 3 3 3 5 5 1 1 3 3 5 6 6 5 4 4 4 4 4 5 5 4 6 6 5 3 4 4 2 3 2 3 1 3 4 3 2 2 4 4 3 3 4 5 5 3 2 2 3 7 6 5 6 6 9 9 6 7 8 12 13 13
5 4 3 2 1 2 1 1 2 1 1 2 2 2 2 2 2 2 2 2 2 2 2 2 2 2 2 2 3 3 4 2 2 1 2 4 6 6 6 5 4 4 3 3 3 5 4 4 7 4 3 3 2 3 1 3 2 3 1 1 3 3 1 0 1 3 4 5 5 5 4 2 4 1 2 6 9 7 5 4 6 6 5 7 10 13 11 13
5 4 3 3 1 1 0 1 2 2 1 0 1 2 2 3 2 3 3 3 3 3 3 3 3 2 3 3 2 4 4 1 2 3 3 5 6 5 5 4 4 5 3 4 4 4 4 6 6 3 4 4 1 3 1 3 4 5 2 1 2 3 1 1 0 2 3 5 5 3 2 3 4 3 1 5 11 8 5 3 3 5 5 8 9 11 13 16
6 5 4 3 2 1 1 0 2 3 2 1 0 1 2 3 3 3 3 3 3 3 3 4 3 3 3 3 3 4 2 1 2 5 5 6 5 4 5 4 5 4 5 7 4 5 4 5 4 4 4 3 3 3 1 1 5 5 2 2 1 1 2 2 2 3 1 2 1 2 3 3 4 2 0 8 12 7 5 1 1 1 4 8 8 10 12 14
5 4 4 3 2 1 1 1 1 2 2 2 1 0 1 2 3 3 4 3 4 4 4 4 3 3 3 4 6 3 2 1 3 6 6 6 5 4 4 5 5 4 6 8 4 4 3 2 4 4 4 3 4 3 2 2 2 1 3 2 2 1 4 2 3 4 2 0 1 2 1 3 3 1 3 10 8 3 2 1 2 3 5 7 7 10 12 12
3 1 4 4 3 2 1 1 1 1 2 2 2 2 0 2 3 3 3 4 4 4 4 4 3 4 4 4 6 2 3 1 4 6 6 6 5 4 3 5 5 5 7 7 7 6 4 5 5 5 6 3 3 2 2 3 2 2 4 3 3 2 2 2 2 1 2 1 1 3 3 4 2 1 4 6 3 2 2 1 2 2 5 7 6 7 11 12
2 1 3 3 2 2 1 0 1 1 1 2 2 2 1 2 3 3 3 4 4 5 5 4 4 4 4 5 6 3 2 3 4 6 6 6 5 3 5 6 5 6 7 8 8 7 6 10 9 6 3 2 3 3 2 2 3 3 4 3 4 5 2 3 1 0 2 0 2 3 2 4 2 1 6 3 3 2 2 3 2 2 5 5 5 5 7 11
2 2 2 2 1 1 0 1 1 1 2 3 3 3 2 2 3 3 3 5 5 5 5 5 4 3 4 5 3 4 1 3 4 5 6 6 5 5 7 7 6 6 6 7 6 6 8 10 9 6 1 3 3 2 1 2 3 2 3 3 5 7 4 4 2 3 2 1 2 2 1 5 3 7 7 2 3 2 1 4 4 4 6 4 5 4 5 10
2 2 2 2 1 1 0 1 2 2 2 3 4 4 4 3 4 4 4 5 5 6 5 5 4 3 4 1 1 3 2 2 4 6 6 6 6 7 8 7 8 8 7 9 8 7 8 7 9 8 3 5 3 1 3 4 3 0 3 3 3 6 4 4 3 3 0 1 2 1 2 6 7 12 7 4 2 2 1 6 5 5 5 4 5 4 5 9
2 2 2 2 2 1 1 1 2 2 3 3 5 5 3 4 5 4 4 5 6 6 5 5 4 4 4 1 2 2 2 2 4 6 7 7 7 8 9 8 9 10 9 11 10 9 9 9 12 9 3 4 3 2 4 5 4 1 2 2 2 1 3 5 2 0 3 0 4 2 3 6 9 12 6 4 2 3 5 7 5 5 5 5 5 5 6 7
2 2 2 2 2 2 3 3 3 3 2 3 4 5 4 5 5 4 6 6 6 7 6 6 4 4 3 2 2 1 3 4 5 7 7 7 7 7 7 8 10 11 11 12 12 12 10 9 10 6 1 2 3 5 4 4 4 3 1 2 3 1 4 7 2 2 2 1 3 3 3 6 9 11 5 4 0 4 6 7 6 6 6 6 5 6 6 7
3 2 2 1 1 2 2 3 3 3 3 3 4 6 6 6 5 6 7 7 8 7 6 5 4 5 3 1 1 1 2 4 5 7 8 8 7 7 9 10 10 10 10 10 11 10 9 8 5 3 2 2 5 5 3 3 4 4 1 2 1 1 3 5 1 1 1 0 1 1 2 3 5 7 5 2 3 3 4 8 8 7 7 6 6 6 6 7
2 2 2 1 1 1 2 3 2 2 2 2 4 6 7 7 6 7 8 9 9 7 6 5 4 4 2 1 1 2 0 3 6 7 8 7 7 10 11 8 7 8 8 8 7 5 8 7 1 1 3 3 3 5 3 2 3 4 2 1 3 2 2 3 2 2 2 2 2 2 3 7 8 8 8 3 4 3 4 8 9 7 6 6 6 7 7 8
3 2 2 1 0 1 2 3 3 2 1 2 5 7 9 8 7 8 9 10 9 7 5 3 4 3 2 2 2 1 1 4 6 8 8 9 9 10 9 6 5 6 6 6 4 4 5 4 2 2 4 3 2 5 3 4 4 3 2 2 2 2 3 3 3 1 2 1 3 3 4 11 12 11 12 7 4 4 8 8 8 7 7 8 7 8 9 9
5 3 2 2 1 1 2 3 3 3 2 2 7 9 9 8 7 7 6 6 4 3 1 2 3 4 3 2 0 2 4 6 7 6 8 10 10 10 9 7 6 6 4 1 2 3 2 3 4 3 1 2 5 6 7 7 6 7 5 4 4 3 3 5 5 4 1 0 4 6 8 11 11 10 12 9 2 4 9 8 7 8 8 9 8 9 9 9
7 6 4 3 2 2 2 3 3 2 2 3 7 7 5 4 4 2 1 0 3 5 3 2 3 3 1 2 1 5 6 5 3 4 7 9 10 11 8 6 6 6 3 3 0 2 3 4 2 5 6 7 8 6 6 6 6 7 5 4 4 3 4 5 3 5 1 1 6 7 7 11 11 11 12 10 4 4 9 9 10 10 9 10 10 11 11 11
9 8 7 5 4 2 1 2 3 3 2 3 6 3 2 3 3 0 2 2 3 5 3 1 2 1 1 1 3 6 4 3 2 2 8 8 8 8 2 4 5 3 1 2 2 2 4 4 7 8 7 7 6 7 8 6 6 6 5 3 1 3 6 5 2 4 1 2 5 3 5 12 12 11 11 9 7 9 10 11 12 13 12 11 11 13 12 10
12 11 9 7 7 4 2 2 3 3 2 2 4 2 2 4 5 3 2 0 4 4 3 1 1 2 2 2 5 4 2 2 1 2 7 6 3 4 1 4 6 3 1 1 2 3 3 4 9 6 6 6 5 6 8 6 6 4 3 2 2 3 4 5 2 4 1 3 4 4 5 11 12 12 13 11 10 11 11 11 13 13 13 13 12 12 11 10
13 13 11 9 8 7 5 3 3 3 1 2 3 3 3 5 6 3 3 2 4 3 2 3 3 4 2 2 6 7 2 3 3 4 7 6 2 3 4 5 5 4 2 3 5 4 2 6 7 5 9 8 6 4 7 6 4 3 4 3 3 3 1 3 3 3 0 2 3 4 5 9 10 11 14 11 8 9 10 12 14 13 14 16 13 9 9 11
12 12 12 12 9 8 8 5 3 3 1 2 4 4 5 7 6 2 2 2 3 4 2 4 3 4 5 3 8 10 2 3 4 4 9 9 4 3 5 5 5 5 4 6 7 5 5 5 1 5 7 8 7 4 7 6 1 2 4 5 4 4 4 5 4 3 2 2 2 3 6 7 6 7 10 6 4 6 7 9 13 13 14 14 12 10 11 12
10 11 12 13 11 10 10 6 3 3 2 2 5 6 7 7 5 3 3 3 3 4 3 3 2 5 7 6 10 9 2 2 4 5 11 11 7 4 2 3 4 4 5 5 6 3 6 5 4 7 4 6 8 4 5 7 3 4 4 8 9 6 5 3 4 5 4 4 3 2 3 5 4 6 9 5 5 9 6 6 12 14 11 9 9 12 12 11
8 10 11 13 13 14 10 4 4 4 2 2 4 8 8 7 4 3 4 4 3 4 1 3 3 5 8 6 8 6 3 4 4 4 10 10 6 5 3 1 2 3 6 6 4 2 2 1 5 7 5 6 6 2 6 7 5 2 4 8 9 5 4 3 0 2 1 4 3 2 1 5 6 8 11 6 8 13 10 9 14 13 10 8 9 10 9 9
5 10 12 14 17 17 9 3 5 4 2 1 5 12 11 7 4 2 3 3 4 3 4 2 1 5 7 6 7 7 3 5 1 4 5 6 3 4 4 4 2 2 4 4 1 2 4 3 4 6 6 6 5 3 6 8 7 3 3 4 6 6 6 5 4 3 3 3 3 2 3 4 7 8 8 4 7 12 11 13 15 12 10 9 9 9 8 8
2 7 12 15 19 19 11 6 9 6 2 2 5 14 14 8 4 2 4 1 4 2 4 1 1 3 2 3 4 5 2 2 4 1 1 3 2 4 3 6 6 5 4 5 4 4 3 6 6 7 5 4 5 4 7 11 6 4 3 5 6 6 5 5 5 2 1 3 4 2 4 2 7 7 3 2 4 8 10 14 15 12 10 9 8 8 7 7
1 4 9 16 20 21 16 9 7 6 5 2 3 14 16 9 4 4 5 3 2 1 1 1 3 1 2 2 1 3 2 2 2 2 3 4 2 4 3 6 6 6 2 3 4 3 0 5 7 7 5 5 4 1 5 9 4 3 6 6 6 5 5 5 4 3 3 3 4 6 6 2 6 5 2 1 3 7 10 12 12 11 9 8 7 7 6 5
1 2 6 15 21 22 17 11 9 7 6 2 4 15 15 5 3 4 2 3 1 0 0 1 2 1 5 6 1 3 3 2 1 1 3 1 2 6 2 3 6 5 1 4 1 3 1 1 2 4 4 5 5 4 1 4 5 6 7 6 7 5 4 3 2 4 3 5 4 9 10 5 4 5 4 4 4 6 8 8 9 8 9 8 5 4 5 4
0 1 5 15 24 24 15 10 13 12 8 7 11 15 10 3 3 4 4 1 1 1 1 1 1 3 9 10 3 1 2 2 0 3 3 1 2 4 2 2 4 4 2 4 3 2 2 1 2 1 2 5 7 5 4 4 5 6 4 5 4 3 4 4 4 4 2 5 3 5 5 4 6 7 4 6 7 6 7 8 9 9 9 8 4 3 4 3
1 1 4 13 23 25 15 9 15 16 10 13 14 9 5 2 0 5 4 1 1 3 4 3 2 5 9 6 3 5 4 1 1 4 4 3 4 4 4 5 5 2 2 6 3 2 1 4 2 1 1 4 6 5 5 4 2 4 4 5 4 2 3 2 3 0 3 6 3 2 1 2 8 8 7 11 12 11 10 10 11 10 10 9 5 5 3 2
2 2 3 8 17 24 19 12 16 18 14 18 13 5 2 5 6 8 7 3 1 2 2 3 2 4 8 5 3 4 3 2 4 3 2 3 5 5 3 3 6 3 2 5 2 0 3 5 1 3 1 3 7 6 3 1 3 4 5 6 4 2 1 3 3 1 4 5 2 2 1 3 6 5 10 17 18 15 11 10 11 10 12 11 6 4 4 3
3 3 4 6 11 18 20 15 16 19 18 18 10 4 3 6 7 10 11 6 1 1 2 3 4 5 6 4 3 4 3 3 5 4 2 4 5 5 5 5 5 2 3 3 3 5 5 6 5 7 3 6 10 8 7 7 5 5 4 5 5 5 5 5 3 3 5 3 2 2 1 3 4 3 8 12 13 11 9 10 9 9 12 10 6 6 6 6
5 4 4 6 8 11 16 17 18 22 20 14 5 4 6 7 4 6 8 5 1 1 2 2 5 5 3 2 3 3 3 2 4 4 3 5 5 7 6 7 8 5 4 4 2 3 5 7 6 3 2 9 11 4 5 8 3 2 2 4 4 5 5 2 3 5 2 2 2 2 4 5 5 6 9 7 8 8 8 8 8 11 13 7 7 9 7 7
6 6 6 5 7 9 12 16 22 25 19 10 3 4 6 6 3 3 4 3 3 4 4 3 4 4 3 1 1 3 1 1 4 4 2 3 3 6 6 7 10 11 9 7 3 2 3 5 5 3 2 5 6 2 3 4 3 2 3 4 4 3 7 4 2 1 4 2 4 2 5 6 3 7 10 8 9 9 8 8 8 12 10 6 8 9 6 7
7 7 5 5 7 9 9 16 25 24 13 6 4 6 4 2 3 3 2 1 2 5 6 3 2 4 4 3 3 5 2 1 3 3 3 2 3 5 7 5 6 14 14 7 3 3 5 3 5 2 1 3 2 2 3 3 3 5 4 5 2 2 3 3 2 1 3 3 5 2 6 6 2 5 6 3 8 11 11 10 10 10 8 8 9 6 6 8
7 7 6 8 11 10 9 18 27 20 6 4 6 7 4 3 5 5 4 3 4 4 4 4 3 4 5 5 4 5 5 3 4 5 3 3 4 6 9 4 4 13 14 6 2 3 4 3 5 1 2 3 3 3 1 4 2 5 4 3 4 3 2 2 3 3 2 3 4 4 5 4 5 5 3 4 10 13 13 11 9 11 12 11 9 6 7 7
5 3 4 6 9 13 14 21 23 11 3 4 7 7 5 6 6 5 6 5 4 4 4 5 4 1 3 5 4 4 5 6 7 6 4 4 5 5 9 8 5 9 11 9 5 3 3 3 4 2 2 1 3 2 5 1 2 3 1 2 2 2 4 3 3 3 3 4 3 4 5 4 7 6 7 11 12 11 11 8 8 13 14 10 6 6 7 6
1 0 2 3 6 17 21 19 11 3 3 5 6 5 4 5 5 5 8 7 4 3 5 7 7 4 3 3 2 3 5 5 6 6 4 5 5 4 6 8 4 4 7 10 7 1 3 3 4 3 3 1 2 5 8 9 6 3 3 4 3 1 2 1 1 2 3 3 2 2 5 8 6 4 8 11 10 10 10 8 9 11 9 6 5 6 6 5
1 1 3 4 7 20 22 14 4 1 3 4 5 6 4 3 4 6 8 6 2 2 3 5 7 7 5 3 2 2 4 3 5 4 3 4 6 5 5 8 8 6 5 6 7 5 3 3 4 2 1 3 5 4 4 7 8 8 7 8 9 6 4 3 3 1 2 3 4 3 4 10 7 5 8 8 7 8 9 8 8 8 6 5 5 5 5 5
1 3 2 4 12 24 15 5 4 3 3 5 6 6 2 3 3 4 6 4 3 1 1 2 7 8 8 8 6 4 5 4 4 4 4 6 8 7 5 5 9 11 9 5 6 6 4 3 3 3 4 6 5 2 0 3 3 4 4 5 6 6 5 5 5 4 2 1 2 4 2 10 6 4 6 6 5 5 6 6 5 7 8 5 5 6 5 6
1 4 4 5 15 25 10 2 5 3 4 6 6 4 1 1 2 3 5 6 5 3 2 2 4 6 7 7 6 6 6 5 6 8 7 6 9 9 5 5 8 10 7 3 2 3 3 3 3 4 3 3 4 3 3 2 2 2 3 2 3 4 4 4 4 4 3 3 3 3 4 11 5 1 3 4 5 4 3 5 6 5 9 6 5 7 5 5
1 2 4 6 11 17 7 4 6 5 7 7 5 4 3 2 3 5 6 8 7 5 5 4 3 4 5 4 5 8 9 7 7 11 10 6 7 6 7 10 9 8 6 3 3 5 4 4 5 4 2 4 4 2 2 1 1 3 4 3 5 7 5 3 1 2 1 6 8 5 7 10 3 3 2 1 5 5 3 6 6 5 7 7 4 5 5 5
0 1 2 5 6 7 4 2 3 5 8 9 8 7 6 4 5 7 8 8 7 5 5 4 4 5 4 3 3 6 9 8 7 7 7 6 5 2 5 11 11 9 6 1 2 6 5 4 6 7 6 7 6 6 5 3 2 1 3 5 7 9 9 5 2 3 5 9 8 6 10 12 3 5 5 3 5 6 5 7 6 5 7 7 5 5 6 6
1 1 2 3 3 3 3 1 1 3 5 8 8 7 10 8 4 6 8 7 7 7 5 3 4 5 4 3 3 5 8 10 8 5 5 7 5 2 4 10 12 12 8 5 5 5 2 2 7 10 11 12 12 9 4 7 6 6 8 9 9 10 12 9 4 5 10 9 7 9 14 16 12 5 6 6 5 7 7 6 6 6 7 7 6 6 5 5
2 2 3 2 1 2 4 3 4 3 3 4 5 5 11 13 6 4 7 7 7 8 6 3 4 7 7 7 7 7 8 10 10 8 7 6 4 3 0 5 9 11 8 5 4 5 3 3 8 12 14 15 15 9 6 8 10 13 14 13 12 12 12 12 11 13 13 7 11 16 12 15 21 13 7 8 7 7 8 7 7 6 6 6 5 5 6 7
3 2 2 2 1 2 5 4 6 7 5 4 2 2 7 13 11 7 6 5 7 9 7 5 8 11 11 11 10 8 9 9 9 11 10 6 3 1 1 1 4 5 7 4 3 4 4 5 8 10 13 17 16 7 7 9 7 9 13 15 15 14 14 16 19 21 17 10 14 19 12 15 24 16 10 11 9 7 9 8 5 4 5 7 6 6 7 8
3 1 1 1 0 1 1 1 3 5 8 6 3 2 3 8 12 10 6 5 6 8 9 9 11 13 14 14 11 9 10 9 8 10 9 7 5 3 2 2 2 1 6 6 4 3 4 6 8 8 9 14 16 8 8 9 5 3 8 12 14 16 19 21 23 24 21 15 16 21 18 21 23 13 9 11 10 8 8 6 4 4 6 9 8 7 8 8
3 2 1 1 1 1 0 2 2 0 3 5 4 4 4 5 8 7 5 6 7 7 11 15 15 14 14 15 13 12 12 11 11 11 9 8 7 5 4 5 2 1 4 6 4 3 4 6 5 5 4 9 14 10 7 8 6 5 5 7 12 16 20 23 21 18 15 14 19 22 20 22 18 7 8 9 8 7 8 8 8 7 9 11 10 9 10 9
4 2 3 3 1 4 2 1 2 1 2 4 4 5 7 8 10 7 5 6 8 6 7 14 17 13 11 14 15 16 15 13 14 14 10 10 9 6 5 5 5 4 5 5 3 4 5 3 1 3 3 9 14 13 8 5 3 5 7 9 15 17 16 15 14 12 13 16 19 17 16 19 10 6 8 9 8 8 11 10 10 10 11 12 13 13 12 11
7 2 3 3 1 3 3 2 3 3 5 5 5 6 6 5 7 6 5 5 7 9 8 9 12 10 10 14 16 16 17 16 15 13 6 4 5 2 3 3 5 6 6 4 1 3 5 3 2 3 4 10 15 14 7 4 3 7 12 18 21 18 12 9 11 15 18 17 14 12 16 20 12 5 8 9 8 11 14 12 11 11 12 13 15 15 14 12
Wind_Direction
183 171 180 176 186 204 220 211 208 226 180 180 189 200 213 204 203 202 203 195 182 187 215 260 295 320 338 345 345 355 352 352 354 19 70 98 0 50 29 36 51 40 35 21 48 125 103 35 30 72 108 60 16 345 24 22 52 59 75 101 151 175 199 188 179 190 171 210 210 212 193 147 175 220 169 120 39 30 287 285 283 283 259 233 261 299 177 164
193 198 188 193 205 179 179 97 287 249 211 207 219 220 209 190 193 191 185 180 173 184 213 255 308 326 341 347 347 354 350 352 9 47 74 150 295 315 130 74 72 42 44 74 71 93 92 8 3 64 70 47 348 352 44 4 48 85 105 113 205 195 204 198 174 183 175 142 171 167 146 153 181 171 145 199 304 0 250 270 318 307 273 238 252 195 162 163
196 207 195 193 195 4 41 46 285 229 218 220 234 233 202 185 184 172 165 163 159 176 206 243 316 336 355 355 350 355 0 18 21 34 96 101 80 122 127 108 92 69 67 82 77 78 101 127 86 79 59 53 2 11 50 10 29 129 113 123 234 209 213 218 181 187 205 153 140 154 146 164 204 169 158 188 211 355 216 239 233 255 253 225 176 157 161 168
202 207 185 196 189 230 280 346 264 237 229 222 233 238 208 187 172 164 154 151 149 170 193 199 343 9 18 4 359 358 23 46 17 212 100 92 111 124 124 114 95 81 79 81 85 82 101 110 82 73 70 56 341 22 55 351 326 121 108 167 225 199 162 207 195 198 204 168 142 146 133 183 218 174 152 153 161 261 239 229 211 226 232 207 182 168 171 177
206 204 185 189 161 237 261 318 298 275 232 222 225 226 210 199 172 153 146 149 144 157 175 148 105 61 49 26 11 355 34 53 278 213 87 114 121 123 119 107 96 88 78 79 97 97 99 88 65 53 57 57 349 32 52 316 81 82 59 185 192 168 108 186 202 191 172 125 111 131 154 181 154 146 155 157 187 235 228 220 213 224 215 187 179 174 177 185
202 198 189 187 184 234 258 339 325 316 245 220 209 203 201 207 172 149 150 152 147 150 154 127 110 92 80 59 31 29 77 83 259 160 112 130 124 124 114 98 95 87 74 95 112 105 88 50 57 55 56 62 11 66 103 305 45 93 0 226 204 197 109 59 220 186 152 121 137 161 179 136 107 206 186 178 217 228 215 204 205 234 223 190 168 166 179 193
203 197 194 200 202 212 47 355 334 332 322 267 209 199 196 198 173 159 158 158 158 149 141 121 108 106 94 93 60 51 86 214 250 146 147 134 131 128 104 89 92 86 90 101 98 111 86 54 77 126 86 74 169 106 71 314 39 88 120 263 208 188 203 314 41 153 148 148 184 187 136 129 159 202 97 220 237 238 237 235 228 253 219 183 163 171 191 196
205 204 201 211 219 209 172 125 357 342 346 3 304 197 199 189 167 163 163 165 158 146 136 118 112 112 102 115 99 50 35 281 166 147 149 139 135 122 104 91 93 96 91 74 82 145 108 68 120 157 83 87 163 106 7 20 44 67 140 214 144 160 300 324 75 84 124 171 209 119 129 208 213 174 118 246 245 245 249 288 299 214 163 176 180 190 198 198
200 207 206 214 226 237 211 152 27 325 358 13 355 324 195 160 155 162 165 166 151 145 129 116 117 110 112 105 92 87 286 301 147 151 145 146 124 100 107 94 91 97 88 66 64 133 128 138 185 179 133 144 133 80 348 84 72 121 136 164 113 16 330 29 77 38 346 277 97 146 184 291 254 184 263 254 255 264 233 61 49 126 157 192 198 201 201 202
197 195 196 210 215 218 245 167 173 318 12 11 359 0 71 126 147 158 162 162 146 139 121 116 117 102 119 103 85 116 272 40 146 158 144 150 128 101 95 86 88 94 91 70 61 77 112 169 177 152 131 118 107 73 352 85 134 134 106 113 88 24 335 78 136 12 330 288 161 199 252 293 305 304 256 260 301 349 162 149 21 153 198 216 213 217 211 214
166 82 170 199 203 189 223 246 205 269 335 10 2 338 354 107 139 149 152 154 141 130 119 117 113 104 110 95 104 173 258 78 144 155 146 151 132 112 87 79 88 102 99 77 68 70 103 146 143 127 115 102 105 51 2 100 113 97 109 120 17 356 0 36 123 283 352 238 199 172 248 298 356 268 237 257 336 0 167 221 293 231 241 243 235 242 224 228
143 89 124 168 162 126 8 329 331 280 323 11 358 339 22 65 120 130 140 147 137 123 122 118 111 121 97 71 120 191 180 92 142 147 150 149 127 107 84 78 84 100 114 96 81 81 109 138 119 91 79 135 121 50 93 99 85 92 102 135 335 355 10 349 336 318 343 163 209 135 305 290 233 229 243 326 349 35 117 244 272 253 256 262 253 261 239 237
150 117 99 108 125 101 11 311 354 356 332 354 358 8 34 67 106 120 141 143 131 122 124 121 115 114 98 68 196 175 153 109 145 147 141 138 121 98 86 88 92 93 107 106 95 90 112 133 103 99 118 107 113 142 112 53 41 38 47 91 346 2 348 321 349 336 268 151 347 61 260 273 248 246 260 341 349 74 292 258 262 260 262 267 261 263 253 242
153 145 118 96 91 83 55 0 6 347 322 349 8 22 52 96 108 118 129 126 122 120 121 121 124 110 96 220 212 150 200 157 148 154 147 146 125 101 94 94 99 97 96 97 91 87 103 112 96 99 93 82 125 116 52 17 22 57 36 50 31 26 277 299 332 24 159 190 10 85 227 269 269 266 274 320 290 179 256 262 260 264 264 266 264 258 258 245
169 145 127 102 80 70 60 43 28 3 0 19 28 45 73 100 104 107 116 118 117 117 122 120 122 110 75 286 218 131 204 170 156 162 156 158 139 111 104 103 105 102 95 91 89 87 92 97 82 79 67 37 80 78 31 359 21 41 71 320 0 156 269 307 308 164 165 329 30 115 231 273 270 272 286 325 9 164 244 266 270 269 265 264 264 256 258 258
189 162 131 111 76 51 50 45 31 16 22 29 50 72 84 94 98 106 115 116 115 116 118 116 117 116 96 290 191 111 200 162 156 161 157 163 159 134 121 113 102 98 97 92 91 85 67 65 63 71 118 71 72 85 49 16 357 359 73 219 264 164 284 316 321 250 243 75 21 171 230 274 273 274 295 342 95 127 251 271 273 265 266 263 258 257 255 262
188 188 173 135 85 26 18 20 15 6 23 57 83 93 93 96 100 108 114 109 109 106 102 120 124 110 101 199 200 281 263 140 148 152 149 152 156 144 128 108 94 98 95 85 84 63 37 46 73 31 57 64 92 94 67 356 288 316 30 188 234 194 227 297 303 318 32 101 224 241 230 250 266 280 290 291 129 136 257 266 272 268 265 261 253 257 252 252
172 174 180 183 212 355 352 350 348 356 20 99 109 107 102 103 111 117 121 115 102 84 80 108 99 87 261 226 186 240 92 123 137 138 135 134 142 145 129 103 103 95 67 50 45 32 23 30 55 64 34 24 84 100 132 217 211 186 173 162 244 241 221 258 269 266 46 71 238 253 255 257 266 278 284 279 159 198 258 263 274 274 266 262 255 252 248 246
185 167 160 189 207 247 317 329 332 354 26 119 127 118 105 98 104 117 124 120 115 104 137 215 136 138 216 245 125 105 103 119 131 135 133 130 133 125 104 90 90 81 75 57 12 21 49 49 56 104 180 209 181 162 176 194 158 150 167 143 158 217 246 238 248 266 241 267 262 244 248 260 266 273 278 282 166 204 264 274 275 271 265 261 255 251 249 245
208 187 177 184 192 227 285 330 333 357 36 129 140 121 107 95 70 53 310 167 175 152 135 200 180 139 111 353 77 117 111 108 118 148 142 140 135 114 76 43 44 50 86 157 170 5 72 95 171 206 204 198 193 174 148 148 121 117 119 108 152 199 267 251 246 290 261 191 263 240 250 268 267 267 269 277 293 257 263 267 264 261 257 254 250 251 247 244
230 211 201 191 184 207 243 315 330 355 26 154 159 130 154 160 99 30 254 276 225 167 145 173 148 141 148 180 171 145 119 70 41 142 152 153 141 131 42 18 70 55 310 178 153 13 70 143 224 224 197 183 170 140 118 109 86 92 120 115 201 214 255 254 222 305 313 185 266 280 284 273 267 268 266 267 274 264 252 250 256 254 252 252 248 250 249 251
245 231 217 202 189 188 195 263 309 336 0 180 178 170 190 156 121 113 135 238 267 212 184 153 83 277 232 176 185 161 81 68 31 262 171 148 117 166 195 61 120 170 277 121 100 30 56 220 239 209 145 110 94 114 113 105 91 81 113 123 267 244 269 284 305 333 354 187 269 326 302 274 273 274 267 256 247 251 247 241 248 250 253 254 247 247 250 256
246 241 231 217 198 185 181 214 294 327 354 189 187 165 150 136 122 102 100 98 291 277 158 168 205 231 214 224 194 161 112 160 179 254 193 148 91 170 137 102 132 139 138 177 157 136 162 250 251 177 140 106 76 91 103 98 95 100 132 142 247 255 272 282 295 330 317 192 270 314 302 278 275 273 267 260 244 252 254 246 250 249 248 252 251 249 243 245
239 242 239 227 207 186 182 196 271 302 304 238 224 181 143 141 135 111 85 70 304 291 231 197 196 194 194 213 181 161 148 185 171 213 187 154 120 149 147 137 126 124 187 191 161 169 218 244 203 119 132 119 107 119 124 129 197 241 183 172 214 231 212 235 286 321 320 353 349 324 309 288 276 271 270 282 305 279 255 247 258 253 245 253 262 259 244 240
229 233 237 230 214 191 181 186 235 246 250 257 226 189 149 147 137 104 80 50 310 297 296 214 203 205 190 157 163 161 120 216 216 200 178 160 140 135 148 141 125 169 198 154 138 202 248 231 127 103 97 104 116 152 172 161 182 271 231 204 211 211 206 237 343 4 356 336 342 10 303 283 309 286 265 283 313 284 255 238 259 258 250 245 250 254 247 242
223 219 224 227 211 186 174 188 235 232 234 254 207 178 166 158 128 103 89 53 303 275 262 182 177 193 180 149 156 143 87 257 257 156 163 168 152 118 127 130 68 190 182 137 147 216 235 201 100 118 127 111 115 173 220 171 139 272 247 210 207 177 166 205 37 36 311 274 289 68 210 272 306 281 264 271 281 277 278 269 264 264 261 243 237 246 246 242
224 213 213 220 207 185 170 176 192 194 219 259 171 173 180 173 143 102 78 40 292 218 155 197 184 163 173 172 160 135 172 241 98 107 153 167 171 75 123 170 102 186 172 125 205 247 172 147 88 116 115 114 136 201 221 163 131 240 249 161 161 158 181 189 154 180 238 277 302 94 144 270 286 267 267 281 272 277 285 277 270 266 260 253 246 247 246 243
247 220 207 215 211 198 197 183 164 173 187 92 144 174 180 179 175 78 85 117 281 150 134 246 151 122 136 172 141 112 195 217 111 188 335 104 168 49 104 191 170 175 176 141 208 262 164 175 181 156 123 145 184 218 196 154 135 245 205 125 136 149 163 137 125 170 330 341 302 193 150 260 273 263 285 317 270 275 275 267 268 270 267 262 259 258 256 250
258 226 207 213 210 203 209 205 176 184 186 98 123 176 175 175 174 66 83 192 267 92 126 114 127 76 51 124 91 55 45 24 104 239 357 81 119 53 135 197 147 147 182 132 191 256 95 199 195 155 146 191 197 275 191 158 153 194 137 101 84 82 81 88 108 117 60 323 257 192 169 217 273 257 227 255 250 254 258 261 264 271 276 273 271 274 275 273
222 208 204 203 199 195 198 205 205 198 182 166 169 168 162 154 125 95 131 219 210 105 268 101 158 152 118 137 251 353 53 15 20 56 31 80 27 32 123 157 92 117 354 14 173 240 314 284 214 150 163 182 135 68 60 131 135 138 116 79 63 47 43 58 51 81 73 291 246 191 187 184 270 264 206 213 219 215 231 257 270 276 282 277 271 275 275 277
346 200 203 195 197 196 189 195 200 192 183 176 160 153 144 66 70 153 195 214 52 160 134 110 191 135 144 155 185 201 99 23 242 126 119 161 59 46 92 117 76 75 2 321 292 291 337 347 260 211 150 125 100 70 33 57 104 110 96 90 85 357 12 30 350 52 126 259 250 217 205 172 241 256 242 252 259 233 216 235 257 264 270 269 251 252 263 264
9 246 210 198 203 203 198 203 196 187 177 157 142 130 133 117 204 216 207 107 46 208 162 174 211 161 163 162 155 166 140 83 191 156 147 151 160 175 182 179 162 96 284 239 254 339 256 229 245 306 145 136 114 82 38 12 33 88 103 110 104 330 353 343 300 86 219 249 245 237 213 212 244 255 263 266 265 251 228 227 241 247 258 261 236 231 253 257
354 296 247 208 208 207 208 215 194 182 166 149 134 64 78 170 202 214 207 176 194 223 128 130 133 136 152 152 167 169 135 160 185 160 127 132 167 212 252 219 180 154 202 193 161 78 274 294 257 146 264 190 153 144 138 207 199 159 150 141 137 139 177 250 262 273 265 266 253 214 163 251 271 272 246 244 248 247 237 236 239 242 254 259 248 234 251 264
358 323 274 237 220 212 212 209 190 175 158 144 132 72 125 195 205 199 205 209 202 16 51 98 99 114 151 165 211 176 141 211 181 138 122 130 156 217 245 241 210 130 97 141 155 178 215 280 213 175 205 187 182 186 161 144 162 185 162 139 158 165 175 215 213 210 252 280 292 251 193 204 221 261 245 239 254 264 257 255 257 258 257 260 272 262 254 255
336 333 296 261 245 227 211 201 191 178 159 138 121 136 175 208 209 194 206 200 134 52 27 52 95 115 181 276 305 193 161 211 171 131 156 163 180 204 199 209 201 160 137 180 212 167 199 259 246 239 237 172 182 200 123 114 138 210 125 119 193 193 155 170 197 178 187 322 306 228 223 216 211 276 277 256 269 276 268 276 279 267 263 263 267 260 254 253
319 325 312 272 252 240 216 199 188 178 162 132 123 182 196 215 192 179 208 176 151 138 105 69 80 109 194 240 279 225 158 109 146 143 196 204 221 212 200 211 197 182 182 186 196 148 170 269 288 339 342 172 185 208 127 141 180 163 143 177 212 168 120 116 230 110 76 276 272 211 245 278 315 287 271 253 265 274 275 277 261 258 268 272 258 251 251 254
324 325 303 267 250 237 221 199 183 173 162 134 163 195 193 223 190 169 203 162 141 144 134 160 173 147 180 190 205 210 186 90 142 165 199 209 253 214 206 238 197 194 202 190 202 201 160 252 297 44 160 249 240 141 76 22 121 134 184 206 169 101 99 110 199 342 44 245 269 265 248 274 298 276 288 282 261 262 260 256 254 266 275 261 253 242 242 252
334 329 291 270 248 227 212 193 178 165 152 153 196 209 172 188 207 176 168 145 142 171 180 200 194 156 174 193 199 184 177 179 169 183 192 188 245 209 184 216 215 203 207 178 206 247 148 224 297 32 185 283 356 117 99 356 58 135 189 189 116 150 196 109 165 200 211 241 274 289 278 263 215 233 277 228 228 238 247 251 258 266 260 254 256 243 240 249
337 335 298 279 231 211 196 182 173 157 127 164 204 218 182 194 206 168 163 157 139 168 202 220 217 167 165 178 169 158 180 186 168 178 187 178 232 216 175 196 222 204 196 172 188 237 123 198 270 329 255 289 26 159 189 214 34 66 112 122 100 163 179 168 163 169 191 217 249 302 313 271 217 205 203 215 221 221 234 248 244 243 244 246 253 246 242 239
3 87 279 307 208 194 180 166 159 137 159 182 205 209 184 187 182 174 186 176 144 161 201 216 211 197 184 167 143 168 183 187 173 187 207 188 218 246 192 189 180 164 176 175 190 185 96 203 237 315 323 191 181 218 195 178 165 153 168 177 189 175 124 175 191 127 150 172 189 268 290 268 242 191 194 215 222 212 214 227 238 245 248 244 241 242 242 234
82 143 264 310 199 179 163 150 146 180 188 208 219 212 201 167 157 188 200 189 178 189 179 191 193 193 194 192 219 183 159 178 185 189 239 215 213 241 218 185 157 130 128 159 196 197 164 194 186 166 233 200 217 245 208 189 185 181 187 195 196 181 149 188 236 213 125 147 179 175 260 270 255 184 198 214 213 217 223 226 248 272 265 249 259 251 239 239
146 188 274 329 185 173 155 145 187 184 210 217 214 215 195 108 131 179 189 195 236 264 62 171 191 197 199 202 208 173 148 178 183 181 233 227 217 227 230 188 159 149 142 159 203 198 152 126 152 194 217 215 231 281 147 210 201 188 203 203 196 189 175 181 206 216 153 169 184 121 245 270 259 177 207 231 223 229 245 229 236 280 269 243 262 264 246 246
195 211 306 329 181 173 162 201 187 186 231 217 216 224 188 122 158 163 172 190 201 193 199 201 186 200 211 202 188 168 168 186 186 196 218 230 230 226 193 157 152 151 152 160 212 180 123 122 192 234 277 301 312 352 35 57 85 211 241 178 155 193 184 156 174 189 164 194 188 118 241 261 273 224 222 257 255 231 237 235 212 256 278 262 253 263 253 246
226 205 294 298 197 182 185 204 188 203 221 221 224 212 217 227 179 162 175 191 194 186 200 209 182 204 220 193 177 182 184 192 205 210 211 222 237 224 167 161 163 170 184 191 184 176 171 185 198 213 278 320 319 319 319 343 131 212 230 186 180 185 155 112 143 169 196 221 196 175 246 253 279 330 280 295 284 254 229 259 236 213 261 270 262 271 269 257
38 184 253 273 233 204 212 215 199 217 217 224 228 210 220 235 184 179 184 189 198 190 191 205 181 187 196 162 186 202 192 199 219 216 211 228 256 273 182 175 172 192 211 158 137 170 177 189 182 190 219 235 234 228 221 199 163 219 227 196 196 184 167 170 178 170 225 231 200 187 245 252 282 345 303 277 289 278 251 259 262 232 244 260 258 261 270 263
110 226 222 262 265 208 214 224 185 239 225 222 226 212 215 228 213 187 189 193 205 196 194 197 158 173 183 156 196 221 209 218 226 210 208 221 237 284 203 179 184 203 195 125 130 153 142 219 197 198 212 222 231 232 182 133 141 203 216 196 196 193 182 183 173 196 222 234 235 228 239 256 265 278 281 270 260 267 265 258 264 255 243 247 244 239 251 256
189 204 180 198 276 218 228 216 179 209 243 217 217 207 211 222 229 199 193 200 199 194 210 217 164 181 189 183 205 218 210 218 223 218 218 216 232 297 195 171 206 213 178 140 161 142 110 238 218 216 224 232 241 234 170 157 175 202 208 194 195 195 181 187 206 220 221 220 247 242 226 250 260 245 235 259 252 256 269 258 252 258 256 262 264 250 250 253
201 211 199 199 215 198 222 221 193 209 237 242 256 252 218 217 218 212 198 197 197 193 206 220 201 202 201 193 204 216 209 211 217 220 224 218 218 287 34 191 235 205 154 164 213 149 151 225 220 220 233 244 253 235 171 190 197 197 204 196 193 191 183 198 216 224 220 209 242 251 225 231 253 246 217 228 230 230 245 241 242 267 274 275 272 259 260 260
185 230 287 281 1 187 180 117 143 198 222 228 242 271 243 223 222 218 190 182 212 203 201 217 217 212 212 208 207 213 211 207 212 217 218 218 202 166 171 222 265 183 154 173 211 165 171 223 217 210 229 249 257 239 181 203 219 202 211 202 194 193 194 205 218 223 224 220 238 252 247 243 252 244 208 217 220 222 240 257 289 296 267 265 264 257 260 263
166 180 213 76 23 244 70 80 100 169 228 217 216 219 224 240 244 238 198 194 214 204 198 216 224 216 213 215 217 223 220 211 218 219 203 206 210 186 200 203 161 180 179 171 189 184 189 223 213 188 221 254 259 247 194 193 213 222 231 216 209 208 207 213 221 223 224 229 238 247 255 260 259 220 193 219 221 230 255 265 267 262 253 258 264 259 256 258
171 128 151 128 205 228 233 216 182 213 231 203 208 217 217 229 238 247 258 235 228 228 211 217 227 225 215 217 221 228 229 219 223 225 205 201 211 194 204 205 152 152 185 174 162 165 185 223 79 118 220 247 251 249 224 184 202 241 246 228 217 217 215 218 222 221 213 219 233 242 251 259 255 153 183 217 204 218 239 238 239 243 241 245 250 251 249 248
182 108 117 131 204 207 205 212 174 193 232 217 213 227 228 235 232 227 250 252 227 236 241 232 238 239 223 222 224 229 234 231 234 239 214 197 238 193 151 184 156 145 164 176 175 165 165 165 146 161 209 242 248 250 235 191 207 241 240 231 223 218 215 219 228 229 221 214 219 228 237 249 248 171 200 222 199 214 229 222 225 237 238 238 242 245 247 246